Medicine Lodge, KS

11:38 PM CDT on May 26, 2018 (GMT -0500)
Medicine Lodge

Weather History for KP28 - January, 2013

Change the Weather History Date:

Thursday, January 24, 2013

  Actual Average Record
Temperature  
Mean Temperature 31 °F 34 °F  
Max Temperature 46 °F 46 °F 74 °F (1981)
Min Temperature 25 °F 22 °F -6 °F (1963)
Degree Days  
Heating Degree Days 34 31  
Month to date heating degree days 673 763  
Since 1 July heating degree days 2255 2562  
Cooling Degree Days 0 0  
Month to date cooling degree days 0 0  
Year to date cooling degree days 0 0  
Moisture  
Dew Point 14 °F    
Average Humidity 50    
Maximum Humidity 68    
Minimum Humidity 31    
Precipitation  
Precipitation 0.00 in 0.02 in 0.81 in (1921)
Month to date precipitation 0.56 0.49  
Year to date precipitation 0.56 0.49  
Snow  
Snow 0.00 in 0.10 in - ()
Month to date snowfall T 2.2  
Since 1 July snowfall 1.0 5.1  
Snow Depth 0.00 in    
Sea Level Pressure  
Sea Level Pressure 30.26 in    
Wind  
Wind Speed 8 mph (NE)    
Max Wind Speed 18 mph    
Max Gust Speed 24 mph    
T = Trace of Precipitation, MM = Missing Value Source: NWS Daily Summary

Daily Weather History Graph

Daily Weather History Graph

Search for Another Location

Airport or City:

Astronomy

Jan. 24, 2013 Rise Set
Actual Time 7:42 AM CST 5:50 PM CST
Civil Twilight 7:15 AM CST 6:18 PM CST
Nautical Twilight 6:43 AM CST 6:49 PM CST
Astronomical Twilight 6:12 AM CST 7:20 PM CST
Moon 3:54 PM CST (1/24) 5:40 AM CST (1/24)
Length of Visible Light 11h 03m
Length of Day
10h 07m
Waxing Gibbous, 94% of the Moon is Illuminated
Jan 24
Waxing Gibbous
Jan 26
Full
Feb 3
Last Quarter
Feb 10
New
Feb 17
First Quarter

Hourly Weather History & Observations

Time (CST) Temp. Windchill Dew Point Humidity Pressure Visibility Wind Dir Wind Speed Gust Speed Precip Events Conditions
12:56 AM 30.0 °F 20.5 °F 19.9 °F 66% 30.32 in - NNE 11.5 mph 21.9 mph N/A   Unknown
1:56 AM 28.9 °F 17.3 °F 18.0 °F 64% 30.32 in - NE 16.1 mph 21.9 mph N/A   Unknown
2:56 AM 28.0 °F 17.5 °F 16.0 °F 61% 30.31 in - NE 12.7 mph - N/A   Unknown
3:56 AM 26.1 °F 15.0 °F 15.1 °F 63% 30.33 in - NE 12.7 mph 23.0 mph N/A   Unknown
4:56 AM 25.0 °F 14.8 °F 15.1 °F 66% 30.33 in - NE 10.4 mph - N/A   Unknown
5:56 AM 28.0 °F 18.1 °F 12.9 °F 53% 30.32 in - NE 11.5 mph - N/A   Unknown
6:56 AM 28.9 °F 18.6 °F 12.9 °F 51% 30.33 in - NNE 12.7 mph - N/A   Unknown
7:56 AM 28.9 °F 18.6 °F 12.9 °F 51% 30.35 in - NE 12.7 mph - N/A   Unknown
8:56 AM 27.0 °F 16.7 °F 12.0 °F 53% 30.35 in - NE 11.5 mph - N/A   Unknown
9:56 AM 28.0 °F 17.5 °F 12.0 °F 51% 30.35 in - NE 12.7 mph - N/A   Unknown
10:56 AM 34.0 °F 25.5 °F 12.0 °F 40% 30.36 in - NNE 11.5 mph - N/A   Unknown
11:56 AM 30.0 °F 20.0 °F 10.9 °F 45% 30.35 in - NE 12.7 mph - N/A   Unknown
12:56 PM 30.9 °F 23.5 °F 10.0 °F 42% 30.31 in - NNE 8.1 mph - N/A   Unknown
1:56 PM 33.1 °F 27.7 °F 10.9 °F 40% 30.25 in - East 5.8 mph - N/A   Unknown
2:56 PM 32.0 °F 26.4 °F 12.9 °F 45% 30.24 in - North 5.8 mph - N/A   Unknown
3:56 PM 37.9 °F 32.7 °F 14.0 °F 38% 30.19 in - ESE 6.9 mph - N/A   Unknown
4:56 PM 30.0 °F - 15.1 °F 54% 30.21 in - Calm Calm - N/A   Unknown
5:56 PM 36.0 °F 32.1 °F 16.0 °F 44% 30.19 in - SSW 4.6 mph - N/A   Unknown
6:56 PM 46.0 °F 43.9 °F 18.0 °F 33% 30.18 in - SSW 4.6 mph - N/A   Unknown
7:56 PM - - - N/A% 30.15 in - WSW 4.6 mph - N/A   Unknown
8:56 PM - - - N/A% 30.14 in - Calm Calm - N/A   Unknown
9:56 PM - - - N/A% 30.14 in - NNE 3.5 mph - N/A   Unknown
10:56 PM - - - N/A% 30.15 in - North 4.6 mph - N/A   Unknown
11:56 PM - - - N/A% 30.12 in - Calm Calm - N/A   Unknown